Terminal Aerodrome Forecast
Issued by NWS Houston/Galveston TX

Home | Current Version | Previous Version | Text Only | Print | Product List | Glossary On
Versions: 1 2 3 4 5 6 7 8 9 10 11 12 13 14 15 16 17 18 19 20 21 22 23 24 25 26 27 28 29 30 31 32 33 34 35 36 37 38 39 40 41 42 43 44 45 46 47 48 49 50
000
FTUS44 KHGX 180524
TAFHOU
TAF
KHOU 180524Z 1806/1906 VRB02KT P6SM FEW006 BKN250
     FM181000 VRB04KT P6SM VCTS FEW006 SCT015CB BKN250
      TEMPO 1810/1814 VRB15KT 2SM +TSRA SCT008 BKN015CB
     FM181400 07005KT P6SM VCTS BKN025CB BKN250
     FM181900 09007KT P6SM VCTS SCT030CB BKN250=

USA.gov is the U.S. government's official web portal to all federal, state and local government web resources and services.